Location: Chacón
(10.5789°N, 66.9317°W)
Time: 13:12:04
(UTC+00:00)

Cosmos 962 Rocket - Pass Details

Date: 22 October 2025
Orbit: 950 x 998 km, 82.9° (Epoch: 16 November)

Event Time Altitude Azimuth Distance (km) Brightness Sun altitude
Exits shadow 08:03:22 63° 117° (ESE) 1,071 4.8 -33.3°
Drops below altitude 10° 08:08:55 10° 168° (SSE) 2,691 7.0 -32.0°
Sets 08:11:25 0° 171° (S) 3,631 7.7 -31.4°
